Time,TemperatureF,DewpointF,PressureIn,WindDirection,WindDirectionDegrees,WindSpeedMPH,WindSpeedGustMPH,Humidity,HourlyPrecipIn,Conditions,Clouds,dailyrainin,SoftwareType,DateUTC
2013-04-18 00:02:00,33.0,32.0,-100.00,NNE,15,20.0,26.0,99,0.00,,,0.02,,2013-04-18 05:02:00,
2013-04-18 00:12:00,32.0,32.0,-100.00,NNE,20,20.0,24.0,99,0.00,,,0.02,,2013-04-18 05:12:00,
2013-04-18 00:22:00,33.0,32.0,-100.00,NNE,25,21.0,25.0,99,0.00,,,0.02,,2013-04-18 05:22:00,
2013-04-18 00:33:00,32.0,32.0,-100.00,NNE,25,17.0,26.0,99,0.00,,,0.02,,2013-04-18 05:33:00,
2013-04-18 00:42:00,32.0,32.0,-100.00,NNE,20,21.0,26.0,99,0.00,,,0.02,,2013-04-18 05:42:00,
2013-04-18 00:52:00,32.0,32.0,-100.00,NNE,25,20.0,26.0,99,0.00,,,0.02,,2013-04-18 05:52:00,
2013-04-18 01:02:00,32.0,32.0,-100.00,NNE,25,16.0,24.0,99,0.00,,,0.02,,2013-04-18 06:02:00,
2013-04-18 01:12:00,32.0,32.0,-100.00,NNE,30,22.0,27.0,99,0.00,,,0.02,,2013-04-18 06:12:00,
2013-04-18 01:22:00,32.0,32.0,-100.00,NNE,25,18.0,24.0,99,0.00,,,0.02,,2013-04-18 06:22:00,
2013-04-18 01:32:00,32.0,32.0,-100.00,NNE,25,21.0,24.0,99,0.00,,,0.02,,2013-04-18 06:32:00,
2013-04-18 01:42:00,32.0,32.0,-100.00,NNE,25,20.0,29.0,99,0.00,,,0.02,,2013-04-18 06:42:00,
2013-04-18 01:52:00,32.0,32.0,-100.00,NNE,20,19.0,25.0,99,0.00,,,0.02,,2013-04-18 06:52:00,
2013-04-18 02:02:00,32.0,32.0,-100.00,NNE,20,17.0,23.0,99,0.00,,,0.02,,2013-04-18 07:02:00,
2013-04-18 02:12:00,32.0,32.0,-100.00,NNE,20,16.0,22.0,99,0.00,,,0.02,,2013-04-18 07:12:00,
2013-04-18 05:52:00,31.0,30.0,-100.00,NNE,25,16.0,20.0,99,0.00,,,0.03,,2013-04-18 10:52:00,
2013-04-18 06:22:00,31.0,30.0,-100.00,NNE,25,18.0,22.0,99,0.00,,,0.03,,2013-04-18 11:22:00,
2013-04-18 06:32:00,31.0,30.0,-100.00,NNE,15,17.0,24.0,99,0.00,,,0.03,,2013-04-18 11:32:00,
2013-04-18 06:42:00,31.0,30.0,-100.00,NNE,15,17.0,22.0,99,0.00,,,0.03,,2013-04-18 11:42:00,
2013-04-18 06:52:00,31.0,30.0,-100.00,NNE,15,19.0,24.0,99,0.00,,,0.03,,2013-04-18 11:52:00,
2013-04-18 07:02:00,31.0,30.0,-100.00,NNE,20,17.0,24.0,99,0.00,,,0.03,,2013-04-18 12:02:00,
2013-04-18 07:12:00,31.0,30.0,-100.00,NNE,15,16.0,25.0,99,0.00,,,0.03,,2013-04-18 12:12:00,
2013-04-18 07:22:00,31.0,30.0,-100.00,NNE,30,18.0,25.0,99,0.00,,,0.03,,2013-04-18 12:22:00,
2013-04-18 07:32:00,31.0,30.0,-100.00,NNE,25,21.0,24.0,99,0.00,,,0.03,,2013-04-18 12:32:00,
2013-04-18 07:42:00,31.0,30.0,-100.00,NNE,15,19.0,26.0,99,0.00,,,0.03,,2013-04-18 12:42:00,
2013-04-18 07:52:00,31.0,30.0,-100.00,NNE,15,17.0,24.0,99,0.00,,,0.03,,2013-04-18 12:52:00,
2013-04-18 08:02:00,31.0,30.0,-100.00,NNE,25,20.0,26.0,99,0.00,,,0.03,,2013-04-18 13:02:00,
2013-04-18 08:12:00,31.0,30.0,-100.00,NNE,20,18.0,26.0,99,0.00,,,0.03,,2013-04-18 13:12:00,
2013-04-18 08:22:00,31.0,30.0,-100.00,NNE,25,20.0,26.0,99,0.00,,,0.03,,2013-04-18 13:22:00,
2013-04-18 08:32:00,31.0,30.0,-100.00,NNE,20,19.0,25.0,99,0.01,,,0.03,,2013-04-18 13:32:00,
2013-04-18 08:42:00,31.0,30.0,-100.00,NNE,20,16.0,25.0,99,0.00,,,0.03,,2013-04-18 13:42:00,
2013-04-18 08:52:00,31.0,30.0,-100.00,NNE,25,14.0,20.0,99,0.00,,,0.03,,2013-04-18 13:52:00,
2013-04-18 09:02:00,31.0,30.0,-100.00,NNE,25,17.0,21.0,99,0.00,,,0.03,,2013-04-18 14:02:00,
2013-04-18 09:12:00,31.0,30.0,-100.00,NNE,25,17.0,21.0,99,0.00,,,0.03,,2013-04-18 14:12:00,
2013-04-18 09:22:00,31.0,30.0,-100.00,NNE,20,19.0,24.0,99,0.00,,,0.03,,2013-04-18 14:22:00,
2013-04-18 09:52:00,31.0,30.0,-100.00,NNE,15,12.0,17.0,99,0.00,,,0.02,,2013-04-18 14:52:00,
2013-04-18 10:02:00,31.0,30.0,-100.00,NNE,15,15.0,17.0,99,0.00,,,0.02,,2013-04-18 15:02:00,
2013-04-18 10:12:00,31.0,30.0,-100.00,North,0,12.0,17.0,99,0.00,,,0.02,,2013-04-18 15:12:00,
2013-04-18 10:22:00,31.0,30.0,-100.00,North,0,15.0,19.0,99,0.01,,,0.02,,2013-04-18 15:22:00,
2013-04-18 10:33:00,31.0,30.0,-100.00,North,0,13.0,18.0,99,0.01,,,0.02,,2013-04-18 15:33:00,
2013-04-18 10:42:00,31.0,30.0,-100.00,North,0,16.0,21.0,99,0.01,,,0.03,,2013-04-18 15:42:00,
2013-04-18 10:52:00,31.0,30.0,-100.00,North,0,16.0,19.0,99,0.01,,,0.03,,2013-04-18 15:52:00,
2013-04-18 11:03:00,31.0,30.0,-100.00,North,0,16.0,20.0,99,0.01,,,0.03,,2013-04-18 16:03:00,
2013-04-18 11:13:00,31.0,30.0,-100.00,North,0,16.0,20.0,99,0.01,,,0.03,,2013-04-18 16:13:00,
2013-04-18 11:22:00,31.0,30.0,-100.00,North,0,16.0,22.0,99,0.00,,,0.03,,2013-04-18 16:22:00,
2013-04-18 11:33:00,31.0,30.0,-100.00,North,0,17.0,23.0,99,0.00,,,0.03,,2013-04-18 16:33:00,
2013-04-18 11:42:00,31.0,30.0,-100.00,North,0,17.0,21.0,99,0.01,,,0.03,,2013-04-18 16:42:00,
2013-04-18 11:52:00,31.0,30.0,-100.00,North,0,16.0,21.0,99,0.01,,,0.04,,2013-04-18 16:52:00,
2013-04-18 12:03:00,31.0,30.0,-100.00,North,0,19.0,22.0,99,0.01,,,0.04,,2013-04-18 17:03:00,
2013-04-18 12:12:00,31.0,30.0,-100.00,North,0,17.0,24.0,99,0.00,,,0.04,,2013-04-18 17:12:00,
2013-04-18 12:22:00,31.0,30.0,-100.00,North,0,19.0,25.0,99,0.00,,,0.04,,2013-04-18 17:22:00,
2013-04-18 12:33:00,31.0,30.0,-100.00,North,0,17.0,22.0,99,0.01,,,0.04,,2013-04-18 17:33:00,
2013-04-18 12:42:00,31.0,30.0,-100.00,North,355,19.0,23.0,99,0.01,,,0.04,,2013-04-18 17:42:00,
2013-04-18 12:52:00,31.0,30.0,-100.00,North,0,21.0,25.0,99,0.01,,,0.04,,2013-04-18 17:52:00,
2013-04-18 13:02:00,31.0,30.0,-100.00,North,0,21.0,27.0,99,0.01,,,0.05,,2013-04-18 18:02:00,
2013-04-18 13:12:00,30.0,30.0,-100.00,North,0,19.0,26.0,99,0.02,,,0.05,,2013-04-18 18:12:00,
2013-04-18 13:22:00,31.0,30.0,-100.00,North,0,19.0,26.0,99,0.01,,,0.05,,2013-04-18 18:22:00,
2013-04-18 13:32:00,31.0,30.0,-100.00,North,0,18.0,24.0,99,0.01,,,0.05,,2013-04-18 18:32:00,
2013-04-18 13:42:00,31.0,30.0,-100.00,North,0,21.0,26.0,99,0.01,,,0.05,,2013-04-18 18:42:00,
2013-04-18 14:02:00,31.0,30.0,-100.00,North,0,18.0,26.0,99,0.00,,,0.05,,2013-04-18 19:02:00,
2013-04-18 14:12:00,31.0,30.0,-100.00,North,0,19.0,26.0,99,0.00,,,0.06,,2013-04-18 19:12:00,
2013-04-18 14:22:00,31.0,30.0,-100.00,North,0,20.0,29.0,99,0.00,,,0.06,,2013-04-18 19:22:00,
2013-04-18 14:32:00,31.0,30.0,-100.00,North,0,22.0,27.0,99,0.01,,,0.06,,2013-04-18 19:32:00,
2013-04-18 14:42:00,31.0,30.0,-100.00,North,0,22.0,29.0,99,0.01,,,0.06,,2013-04-18 19:42:00,
2013-04-18 14:52:00,31.0,30.0,-100.00,North,0,21.0,28.0,99,0.00,,,0.06,,2013-04-18 19:52:00,
2013-04-18 15:02:00,31.0,30.0,-100.00,North,0,21.0,27.0,99,0.01,,,0.06,,2013-04-18 20:02:00,
2013-04-18 15:12:00,31.0,30.0,-100.00,North,0,21.0,24.0,99,0.01,,,0.06,,2013-04-18 20:12:00,
2013-04-18 15:22:00,31.0,30.0,-100.00,North,0,22.0,30.0,99,0.01,,,0.06,,2013-04-18 20:22:00,
2013-04-18 15:32:00,31.0,30.0,-100.00,North,355,21.0,27.0,99,0.01,,,0.06,,2013-04-18 20:32:00,
2013-04-18 15:42:00,31.0,30.0,-100.00,North,355,22.0,29.0,99,0.01,,,0.06,,2013-04-18 20:42:00,
2013-04-18 15:52:00,31.0,30.0,-100.00,North,355,22.0,29.0,99,0.01,,,0.06,,2013-04-18 20:52:00,
2013-04-18 16:02:00,31.0,30.0,-100.00,North,350,24.0,31.0,99,0.01,,,0.07,,2013-04-18 21:02:00,
2013-04-18 16:12:00,31.0,30.0,-100.00,North,355,24.0,30.0,99,0.01,,,0.07,,2013-04-18 21:12:00,
2013-04-18 16:22:00,31.0,30.0,-100.00,North,350,23.0,29.0,99,0.02,,,0.07,,2013-04-18 21:22:00,
2013-04-18 16:32:00,31.0,30.0,-100.00,North,355,21.0,32.0,99,0.02,,,0.07,,2013-04-18 21:32:00,
2013-04-18 16:43:00,31.0,30.0,-100.00,North,350,21.0,28.0,99,0.02,,,0.08,,2013-04-18 21:43:00,
2013-04-18 16:52:00,31.0,30.0,-100.00,North,350,23.0,31.0,99,0.02,,,0.08,,2013-04-18 21:52:00,
2013-04-18 17:02:00,31.0,30.0,-100.00,North,350,22.0,30.0,99,0.02,,,0.08,,2013-04-18 22:02:00,
2013-04-18 17:13:00,31.0,30.0,-100.00,North,350,24.0,29.0,99,0.02,,,0.08,,2013-04-18 22:13:00,
2013-04-18 17:22:00,31.0,30.0,-100.00,North,350,24.0,30.0,99,0.01,,,0.09,,2013-04-18 22:22:00,
2013-04-18 17:32:00,31.0,30.0,-100.00,North,350,27.0,32.0,99,0.01,,,0.09,,2013-04-18 22:32:00,
2013-04-18 17:42:00,31.0,30.0,-100.00,North,350,26.0,35.0,99,0.01,,,0.09,,2013-04-18 22:42:00,
2013-04-18 17:52:00,31.0,30.0,-100.00,North,350,28.0,35.0,99,0.01,,,0.09,,2013-04-18 22:52:00,
2013-04-18 18:03:00,31.0,30.0,-100.00,North,350,29.0,34.0,99,0.01,,,0.09,,2013-04-18 23:03:00,
2013-04-18 18:11:00,31.0,30.0,-100.00,North,350,28.0,34.0,99,0.01,,,0.10,,2013-04-18 23:11:00,
2013-04-18 18:21:00,31.0,30.0,-100.00,North,0,30.0,44.0,99,0.01,,,0.10,,2013-04-18 23:21:00,
2013-04-18 18:32:00,31.0,30.0,-100.00,North,350,24.0,32.0,99,0.01,,,0.10,,2013-04-18 23:32:00,
2013-04-18 18:42:00,31.0,30.0,-100.00,North,350,26.0,33.0,99,0.01,,,0.10,,2013-04-18 23:42:00,
2013-04-18 18:52:00,31.0,30.0,-100.00,NNW,345,26.0,34.0,99,0.01,,,0.10,,2013-04-18 23:52:00,
2013-04-18 19:01:00,31.0,30.0,-100.00,NNW,345,26.0,36.0,99,0.01,,,0.10,,2013-04-19 00:01:00,
2013-04-18 19:12:00,31.0,30.0,-100.00,NNW,345,24.0,31.0,99,0.01,,,0.11,,2013-04-19 00:12:00,
2013-04-18 19:21:00,31.0,30.0,-100.00,NNW,345,26.0,35.0,99,0.01,,,0.11,,2013-04-19 00:21:00,
2013-04-18 19:32:00,30.0,30.0,-100.00,NNW,345,30.0,37.0,99,0.00,,,0.11,,2013-04-19 00:32:00,
2013-04-18 19:42:00,30.0,30.0,-100.00,NNW,345,29.0,36.0,99,0.00,,,0.11,,2013-04-19 00:42:00,
2013-04-18 19:51:00,30.0,30.0,-100.00,NNW,345,29.0,35.0,99,0.01,,,0.11,,2013-04-19 00:51:00,
2013-04-18 20:01:00,30.0,30.0,-100.00,NNW,345,23.0,32.0,99,0.01,,,0.11,,2013-04-19 01:01:00,
2013-04-18 22:53:00,29.0,28.0,-100.00,NNW,345,29.0,39.0,99,0.00,,,0.11,,2013-04-19 03:53:00,
2013-04-18 23:03:00,29.0,28.0,-100.00,NNW,345,27.0,37.0,99,0.00,,,0.11,,2013-04-19 04:03:00,
2013-04-18 23:13:00,29.0,28.0,-100.00,NNW,345,29.0,35.0,99,0.00,,,0.11,,2013-04-19 04:13:00,
2013-04-18 23:23:00,29.0,28.0,-100.00,NNW,345,26.0,34.0,99,0.00,,,0.11,,2013-04-19 04:23:00,
2013-04-18 23:33:00,29.0,28.0,-100.00,NNW,345,28.0,32.0,99,0.00,,,0.11,,2013-04-19 04:33:00,
2013-04-18 23:43:00,29.0,28.0,-100.00,NNW,345,29.0,35.0,99,0.00,,,0.11,,2013-04-19 04:43:00,
2013-04-18 23:52:00,29.0,28.0,-100.00,NNW,345,27.0,34.0,99,0.00,,,0.11,,2013-04-19 04:52:00,